Flight Track Log - Related Links

Times and Time Zones

All times are in EDT time to prevent confusion due to time zone crossing. See the AWE1710 flight status page for this flight to view local times or setup timezone preferences in your user account.

Time Position Orientation Groundspeed Altitude Reporting Facility
EDT Latitude Longitude Course Direction KTS MPH feet Rate Location/Type
Sun 01:20:27 PM 35.1908 -80.9356 193° South 188 216 2,000  Level Atlanta Center
Sun 01:21:29 PM 35.1281 -80.9278 174° South 221 254 3,700 1,920 Climbing Atlanta Center
Sun 01:22:32 PM 35.0547 -80.9153 172° South 264 304 6,000 2,390 Climbing Atlanta Center
Sun 01:23:00 PM 34.7358 -80.9763 180° South  Level Estimated
Sun 01:23:32 PM 34.9772 -80.9056 174° South 279 321 8,600  Level Atlanta Center
Sun 01:24:00 PM 34.6163 -80.9830 180° South  Level Estimated
Sun 01:24:32 PM 34.8939 -80.9061 180° South 290 334 10,600  Level Atlanta Center
Sun 01:25:00 PM 34.4968 -80.9898 193° South  Level Estimated
Sun 01:26:55 PM 34.6636 -80.9008 179° South 352 405 15,200  Level Jacksonville Center
Sun 01:27:56 PM 34.5592 -80.8933 177° South 366 421 16,900 1,250 Climbing Jacksonville Center
Sun 01:28:55 PM 34.4444 -80.9011 183° South 383 441 17,700 1,109 Climbing Jacksonville Center
Sun 01:29:55 PM 34.3278 -80.9061 182° South 414 476 19,100 1,350 Climbing Jacksonville Center
Sun 01:30:55 PM 34.2089 -80.9139 183° South 425 489 20,400 1,350 Climbing Jacksonville Center
Sun 01:31:55 PM 34.0861 -80.9242 184° South 431 496 21,800 1,350 Climbing Jacksonville Center
Sun 01:32:55 PM 33.9692 -80.9294 182° South 456 525 23,100 1,250 Climbing Jacksonville Center
Sun 01:33:55 PM 33.8422 -80.9422 185° South 463 533 24,300 1,150 Climbing Jacksonville Center
Sun 01:34:55 PM 33.7150 -80.9500 183° South 463 533 25,400 1,250 Climbing Jacksonville Center
Sun 01:35:55 PM 33.5878 -80.9578 183° South 458 527 26,800 1,240 Climbing Jacksonville Center
Sun 01:36:56 PM 33.4608 -80.9681 184° South 458 527 27,900 550 Climbing Jacksonville Center
Sun 01:37:55 PM 33.3314 -80.9733 182° South 458 527 27,900  Level Jacksonville Center
Sun 01:38:55 PM 33.2064 -80.9836 184° South 458 527 27,900 50 Level Jacksonville Center
Sun 01:39:56 PM 33.0769 -80.9911 183° South 458 527 28,000 50 Climbing Jacksonville Center
Sun 01:40:55 PM 32.9478 -81.0014 184° South 458 527 28,000 -50 Level Jacksonville Center
Sun 01:41:55 PM 32.8206 -81.0114 184° South 463 533 27,900 -50 Descending Jacksonville Center
Sun 01:42:55 PM 32.6933 -81.0167 182° South 463 533 27,900 50 Level Jacksonville Center
Sun 01:43:55 PM 32.5642 -81.0267 184° South 463 533 28,000  Climbing Jacksonville Center
Sun 01:44:55 PM 32.4369 -81.0367 184° South 463 533 27,900  Descending Jacksonville Center
Sun 01:45:55 PM 32.3117 -81.0442 183° South 457 526 28,000 50 Climbing Jacksonville Center
Sun 01:46:55 PM 32.1739 -81.0494 182° South 458 527 28,000  Level Jacksonville Center
Sun 01:47:55 PM 32.0447 -81.0617 185° South 468 539 28,000 -50 Level Jacksonville Center
Sun 01:48:55 PM 31.9303 -81.0908 192° South 468 539 27,900  Descending Jacksonville Center
Sun 01:49:55 PM 31.7953 -81.1278 193° South 461 531 28,000 50 Climbing Jacksonville Center
Sun 01:50:55 PM 31.6703 -81.1594 192° South 454 522 28,000  Level Jacksonville Center
Sun 01:51:56 PM 31.5581 -81.1908 193° South 459 528 28,000  Level Jacksonville Center
Sun 01:52:55 PM 31.4247 -81.2272 193° South 454 522 28,000 -50 Level Jacksonville Center
Sun 01:53:55 PM 31.3125 -81.2561 192° South 454 522 27,900 -50 Descending Jacksonville Center
Sun 01:54:55 PM 31.1872 -81.2631 183° South 454 522 27,900 50 Level Jacksonville Center
Sun 01:55:55 PM 31.0619 -81.2531 176° South 449 517 28,000  Climbing Jacksonville Center
Sun 01:56:55 PM 30.9344 -81.2433 176° South 457 526 27,900 -50 Descending Jacksonville Center
Sun 01:57:56 PM 30.8111 -81.2333 176° South 462 532 27,900 50 Level Jacksonville Center
Sun 01:58:55 PM 30.6814 -81.2233 176° South 457 526 28,000 50 Climbing Jacksonville Center
Sun 01:59:55 PM 30.5539 -81.2111 175° South 462 532 28,000  Level Jacksonville Center
Sun 02:00:55 PM 30.4286 -81.2039 177° South 462 532 28,000 -50 Level Jacksonville Center
Sun 02:01:55 PM 30.3011 -81.1917 175° South 462 532 27,900 -50 Descending Jacksonville Center
Sun 02:02:55 PM 30.1758 -81.1819 176° South 462 532 27,900  Level Jacksonville Center
Sun 02:03:56 PM 30.0358 -81.1722 177° South 462 532 27,900 -500 Level Jacksonville Center
Sun 02:04:55 PM 29.9125 -81.1625 176° South 462 532 26,900 -1,412 Descending Jacksonville Center
Sun 02:05:55 PM 29.7933 -81.1528 176° South 450 518 25,100 -1,950 Descending Jacksonville Center
Sun 02:06:55 PM 29.6761 -81.1428 176° South 438 504 23,000 -2,100 Descending Jacksonville Center
Sun 02:07:55 PM 29.5592 -81.1378 178° South 426 490 20,900 -1,934 Descending Jacksonville Center
Sun 02:08:56 PM 29.4650 -81.1203 171° South 403 464 19,100 -1,785 Descending Jacksonville Center
Sun 02:09:56 PM 29.3544 -81.1175 179° South 397 457 17,300 -1,966 Descending Jacksonville Center
Sun 02:10:55 PM 29.2478 -81.1122 178° South 391 450 15,200 -2,067 Descending Jacksonville Center
Sun 02:11:55 PM 29.1456 -81.1022 175° South 380 437 13,200 -1,550 Descending Jacksonville Center
Sun 02:12:55 PM 29.0472 -81.0944 176° South 369 425 12,100 -800 Descending Jacksonville Center
Sun 02:13:55 PM 28.9636 -81.0772 170° South 342 394 11,600 -950 Descending Jacksonville Center
Sun 02:14:55 PM 28.8839 -81.0453 161° South 312 359 10,200 -1,624 Descending Jacksonville Center
Sun 02:15:20 PM 28.8500 -81.0333 163° South 295 339 9,300 -1,976 Descending Orlando TRACON
Sun 02:16:20 PM 28.7667 -81.0500 190° South 273 314 7,400 -1,650 Descending Orlando TRACON
Sun 02:17:20 PM 28.7500 -81.1333 257° West 274 315 6,000 -783 Descending Orlando TRACON
Sun 02:18:38 PM 28.7333 -81.2333 259° West 210 242 5,600 -739 Descending Orlando TRACON
Sun 02:19:38 PM 28.7000 -81.2833 233° Southwest 204 235 4,300 -843 Descending Orlando TRACON
Sun 02:20:39 PM 28.6500 -81.2833 180° South 205 236 3,900 -678 Descending Orlando TRACON
Sun 02:21:33 PM 28.6000 -81.2833 180° South 197 227 3,000 -1,000 Descending Orlando TRACON

Login

Don't have an account? Register now (free) for customized features, flight alerts, and more!